Time,TemperatureF,DewpointF,PressureIn,WindDirection,WindDirectionDegrees,WindSpeedMPH,WindSpeedGustMPH,Humidity,HourlyPrecipIn,Conditions,Clouds,dailyrainin,SoftwareType,DateUTC
2013-11-29 00:12:00,16.0,8.0,30.46,NW,310,0.0,0.0,71,0.00,,,0.00,,2013-11-29 06:12:00,
2013-11-29 00:22:00,17.0,9.0,30.46,NW,310,0.0,0.0,70,0.00,,,0.00,,2013-11-29 06:22:00,
2013-11-29 00:42:00,17.0,9.0,30.46,NW,310,0.0,1.0,70,0.00,,,0.00,,2013-11-29 06:42:00,
2013-11-29 00:52:00,18.0,10.0,30.46,NW,310,0.0,0.0,69,0.00,,,0.00,,2013-11-29 06:52:00,
2013-11-29 01:21:00,18.0,11.0,30.47,NW,310,0.0,0.0,72,0.00,,,0.00,,2013-11-29 07:21:00,
2013-11-29 01:42:00,18.0,11.0,30.47,NW,310,0.0,0.0,72,0.00,,,0.00,,2013-11-29 07:42:00,
2013-11-29 01:52:00,18.0,11.0,30.47,NW,310,0.0,1.0,72,0.00,,,0.00,,2013-11-29 07:52:00,
2013-11-29 02:21:00,18.0,11.0,30.48,WNW,298,0.0,2.0,72,0.00,,,0.00,,2013-11-29 08:21:00,
2013-11-29 02:42:00,18.0,11.0,30.49,WNW,298,0.0,1.0,72,0.00,,,0.00,,2013-11-29 08:42:00,
2013-11-29 02:52:00,18.0,11.0,30.49,WNW,294,0.0,0.0,72,0.00,,,0.00,,2013-11-29 08:52:00,
2013-11-29 03:21:00,17.0,10.0,30.48,WNW,294,0.0,0.0,72,0.00,,,0.00,,2013-11-29 09:21:00,
2013-11-29 03:43:00,17.0,10.0,30.48,WNW,294,0.0,0.0,72,0.00,,,0.00,,2013-11-29 09:43:00,
2013-11-29 03:52:00,16.0,9.0,30.49,WNW,294,0.0,0.0,72,0.00,,,0.00,,2013-11-29 09:52:00,
2013-11-29 04:13:00,15.0,7.0,30.49,WNW,294,0.0,0.0,71,0.00,,,0.00,,2013-11-29 10:13:00,
2013-11-29 04:23:00,15.0,7.0,30.49,WNW,294,0.0,0.0,71,0.00,,,0.00,,2013-11-29 10:23:00,
2013-11-29 04:42:00,14.0,6.0,30.50,WNW,294,0.0,0.0,70,0.00,,,0.00,,2013-11-29 10:42:00,
2013-11-29 04:52:00,14.0,6.0,30.51,WNW,294,0.0,0.0,69,0.00,,,0.00,,2013-11-29 10:52:00,
2013-11-29 05:21:00,13.0,5.0,30.52,WNW,294,0.0,0.0,69,0.00,,,0.00,,2013-11-29 11:21:00,
2013-11-29 05:52:00,12.0,4.0,30.53,WNW,294,0.0,0.0,69,0.00,,,0.00,,2013-11-29 11:52:00,
2013-11-29 06:22:00,12.0,4.0,30.54,WNW,294,0.0,0.0,68,0.00,,,0.00,,2013-11-29 12:22:00,
2013-11-29 06:52:00,11.0,3.0,30.54,WNW,294,0.0,0.0,68,0.00,,,0.00,,2013-11-29 12:52:00,
2013-11-29 07:11:00,11.0,3.0,30.55,WNW,294,0.0,0.0,68,0.00,,,0.00,,2013-11-29 13:11:00,
2013-11-29 07:22:00,10.0,2.0,30.55,WNW,294,0.0,0.0,68,0.00,,,0.00,,2013-11-29 13:22:00,
2013-11-29 07:42:00,10.0,1.0,30.55,WNW,294,0.0,0.0,67,0.00,,,0.00,,2013-11-29 13:42:00,
2013-11-29 07:52:00,11.0,2.0,30.56,WNW,294,0.0,0.0,67,0.00,,,0.00,,2013-11-29 13:52:00,
2013-11-29 08:22:00,12.0,3.0,30.57,WNW,294,0.0,0.0,66,0.00,,,0.00,,2013-11-29 14:22:00,
2013-11-29 08:42:00,13.0,3.0,30.58,WNW,294,0.0,0.0,65,0.00,,,0.00,,2013-11-29 14:42:00,
2013-11-29 08:52:00,14.0,4.0,30.57,WNW,288,0.0,1.0,63,0.00,,,0.00,,2013-11-29 14:52:00,
2013-11-29 09:11:00,15.0,5.0,30.56,West,268,0.0,0.0,63,0.00,,,0.00,,2013-11-29 15:11:00,
2013-11-29 09:21:00,17.0,7.0,30.57,WSW,249,0.0,1.0,64,0.00,,,0.00,,2013-11-29 15:21:00,
2013-11-29 09:43:00,18.0,8.0,30.58,WSW,249,0.0,1.0,65,0.00,,,0.00,,2013-11-29 15:43:00,
2013-11-29 09:53:00,19.0,10.0,30.58,WSW,238,0.0,2.0,66,0.00,,,0.00,,2013-11-29 15:53:00,
2013-11-29 10:23:00,20.0,11.0,30.57,South,169,3.0,5.0,67,0.00,,,0.00,,2013-11-29 16:23:00,
2013-11-29 10:42:00,21.0,12.0,30.57,South,188,1.0,6.0,67,0.00,,,0.00,,2013-11-29 16:42:00,
2013-11-29 10:53:00,22.0,13.0,30.56,South,170,0.0,5.0,68,0.00,,,0.00,,2013-11-29 16:53:00,
2013-11-29 11:22:00,24.0,16.0,30.56,South,183,4.0,6.0,70,0.00,,,0.00,,2013-11-29 17:22:00,
2013-11-29 11:52:00,26.0,18.0,30.55,SE,142,4.0,6.0,72,0.00,,,0.00,,2013-11-29 17:52:00,
2013-11-29 12:21:00,29.0,20.0,30.53,SW,230,3.0,8.0,70,0.00,,,0.00,,2013-11-29 18:21:00,
2013-11-29 12:42:00,28.0,19.0,30.53,SSW,192,8.0,11.0,69,0.00,,,0.00,,2013-11-29 18:42:00,
2013-11-29 12:52:00,28.0,19.0,30.52,South,190,9.0,12.0,68,0.00,,,0.00,,2013-11-29 18:52:00,
2013-11-29 13:21:00,29.0,20.0,30.51,SSW,192,5.0,7.0,68,0.00,,,0.00,,2013-11-29 19:21:00,
2013-11-29 13:42:00,29.0,19.0,30.50,SSW,198,2.0,9.0,66,0.00,,,0.00,,2013-11-29 19:42:00,
2013-11-29 13:52:00,29.0,19.0,30.50,South,182,3.0,10.0,66,0.00,,,0.00,,2013-11-29 19:52:00,
2013-11-29 14:22:00,29.0,19.0,30.49,SSW,204,5.0,8.0,65,0.00,,,0.00,,2013-11-29 20:22:00,
2013-11-29 14:52:00,29.0,18.0,30.47,South,178,6.0,10.0,63,0.00,,,0.00,,2013-11-29 20:52:00,
2013-11-29 15:12:00,28.0,18.0,30.47,South,185,3.0,10.0,66,0.00,,,0.00,,2013-11-29 21:12:00,
2013-11-29 15:21:00,28.0,18.0,30.47,SSW,193,5.0,8.0,66,0.00,,,0.00,,2013-11-29 21:21:00,
2013-11-29 15:43:00,28.0,18.0,30.47,SE,132,5.0,10.0,67,0.00,,,0.00,,2013-11-29 21:43:00,
2013-11-29 15:53:00,28.0,18.0,30.46,South,182,4.0,6.0,67,0.00,,,0.00,,2013-11-29 21:53:00,
2013-11-29 16:23:00,28.0,19.0,30.46,South,182,3.0,6.0,68,0.00,,,0.00,,2013-11-29 22:23:00,
2013-11-29 16:42:00,28.0,19.0,30.45,South,185,0.0,4.0,69,0.00,,,0.00,,2013-11-29 22:42:00,
2013-11-29 16:52:00,27.0,19.0,30.45,South,184,0.0,1.0,70,0.00,,,0.00,,2013-11-29 22:52:00,
2013-11-29 17:22:00,27.0,19.0,30.44,South,184,0.0,1.0,71,0.00,,,0.00,,2013-11-29 23:22:00,
2013-11-29 17:42:00,27.0,19.0,30.43,South,178,0.0,4.0,70,0.00,,,0.00,,2013-11-29 23:42:00,
2013-11-29 17:52:00,27.0,19.0,30.42,South,175,0.0,2.0,70,0.00,,,0.00,,2013-11-29 23:52:00,
2013-11-29 18:11:00,27.0,19.0,30.42,South,173,0.0,1.0,70,0.00,,,0.00,,2013-11-30 00:11:00,
2013-11-29 18:21:00,26.0,18.0,30.41,SSE,167,0.0,1.0,71,0.00,,,0.00,,2013-11-30 00:21:00,
2013-11-29 18:42:00,26.0,18.0,30.41,SSE,165,0.0,2.0,71,0.00,,,0.00,,2013-11-30 00:42:00,
2013-11-29 18:52:00,26.0,18.0,30.40,SSE,164,0.0,1.0,71,0.00,,,0.00,,2013-11-30 00:52:00,
2013-11-29 19:21:00,26.0,18.0,30.40,ESE,118,0.0,1.0,71,0.00,,,0.00,,2013-11-30 01:21:00,
2013-11-29 19:42:00,26.0,18.0,30.40,SE,134,0.0,2.0,71,0.00,,,0.00,,2013-11-30 01:42:00,
2013-11-29 19:52:00,26.0,18.0,30.39,ENE,74,1.0,4.0,72,0.00,,,0.00,,2013-11-30 01:52:00,
2013-11-29 20:21:00,27.0,20.0,30.38,South,171,0.0,5.0,73,0.00,,,0.00,,2013-11-30 02:21:00,
2013-11-29 20:42:00,27.0,20.0,30.38,South,171,1.0,8.0,73,0.00,,,0.00,,2013-11-30 02:42:00,
2013-11-29 20:52:00,27.0,20.0,30.37,South,170,1.0,4.0,73,0.00,,,0.00,,2013-11-30 02:52:00,
2013-11-29 21:21:00,27.0,19.0,30.35,South,175,0.0,6.0,72,0.00,,,0.00,,2013-11-30 03:21:00,
2013-11-29 21:53:00,28.0,20.0,30.35,South,179,1.0,7.0,72,0.00,,,0.00,,2013-11-30 03:53:00,
2013-11-29 22:23:00,28.0,20.0,30.34,South,184,2.0,5.0,72,0.00,,,0.00,,2013-11-30 04:23:00,
2013-11-29 22:43:00,28.0,20.0,30.33,SSW,194,2.0,6.0,72,0.00,,,0.00,,2013-11-30 04:43:00,
2013-11-29 22:53:00,28.0,20.0,30.33,South,176,2.0,8.0,72,0.00,,,0.00,,2013-11-30 04:53:00,
2013-11-29 23:22:00,27.0,19.0,30.32,SSE,168,0.0,5.0,72,0.00,,,0.00,,2013-11-30 05:22:00,
2013-11-29 23:42:00,28.0,20.0,30.31,South,174,3.0,7.0,72,0.00,,,0.00,,2013-11-30 05:42:00,
2013-11-29 23:53:00,28.0,20.0,30.30,South,173,2.0,8.0,72,0.00,,,0.00,,2013-11-30 05:53:00,